TimeEST,TemperatureF,Dew PointF,Humidity,Sea Level PressureIn,VisibilityMPH,Wind Direction,Wind SpeedMPH,Gust SpeedMPH,PrecipitationIn,Events,Conditions,WindDirDegrees,DateUTC
12:54 AM,36.0,28.0,73,29.92,8.0,ESE,5.8,-,N/A,,Overcast,110,2013-02-15 05:54:00
1:54 AM,37.0,27.0,67,29.91,9.0,SSE,4.6,-,N/A,,Scattered Clouds,150,2013-02-15 06:54:00
2:54 AM,37.0,27.0,67,29.91,10.0,East,9.2,-,N/A,,Overcast,80,2013-02-15 07:54:00
3:54 AM,35.1,28.0,76,29.90,8.0,North,3.5,-,N/A,,Overcast,360,2013-02-15 08:54:00
4:54 AM,33.1,28.0,82,29.93,8.0,Calm,Calm,-,N/A,,Overcast,0,2013-02-15 09:54:00
5:54 AM,33.1,28.0,82,29.93,7.0,Calm,Calm,-,N/A,,Overcast,0,2013-02-15 10:54:00
6:54 AM,33.1,28.0,82,29.94,8.0,Calm,Calm,-,N/A,,Partly Cloudy,0,2013-02-15 11:54:00
7:54 AM,33.1,28.0,82,29.97,6.0,Calm,Calm,-,N/A,,Haze,0,2013-02-15 12:54:00
8:54 AM,39.9,25.0,55,29.99,10.0,West,16.1,25.3,N/A,,Scattered Clouds,260,2013-02-15 13:54:00
9:54 AM,41.0,24.1,51,30.00,10.0,WSW,18.4,25.3,N/A,,Clear,250,2013-02-15 14:54:00
10:54 AM,41.0,23.0,49,30.00,10.0,West,19.6,26.5,N/A,,Clear,260,2013-02-15 15:54:00
11:54 AM,42.1,24.1,49,29.99,10.0,West,12.7,-,N/A,,Clear,260,2013-02-15 16:54:00
12:54 PM,45.0,24.1,44,29.96,10.0,West,11.5,19.6,N/A,,Clear,260,2013-02-15 17:54:00
1:54 PM,46.0,23.0,40,29.96,10.0,West,13.8,20.7,N/A,,Clear,260,2013-02-15 18:54:00
2:54 PM,44.1,21.9,42,29.95,10.0,WSW,15.0,-,N/A,,Mostly Cloudy,250,2013-02-15 19:54:00
3:54 PM,44.1,23.0,43,29.95,10.0,WSW,12.7,-,N/A,,Overcast,240,2013-02-15 20:54:00
4:54 PM,42.1,24.1,49,29.96,10.0,WSW,9.2,-,N/A,,Overcast,250,2013-02-15 21:54:00
5:54 PM,39.9,26.1,58,29.97,10.0,WSW,9.2,-,N/A,,Overcast,240,2013-02-15 22:54:00
6:54 PM,37.9,30.0,73,29.98,10.0,West,10.4,-,N/A,,Overcast,260,2013-02-15 23:54:00
7:54 PM,37.0,28.9,73,29.99,10.0,WNW,3.5,-,N/A,,Overcast,290,2013-02-16 00:54:00
8:54 PM,36.0,28.9,76,29.99,10.0,WNW,4.6,-,N/A,,Mostly Cloudy,290,2013-02-16 01:54:00
9:54 PM,33.1,28.9,85,30.00,10.0,West,5.8,-,N/A,,Mostly Cloudy,260,2013-02-16 02:54:00
10:54 PM,33.1,28.9,85,30.01,10.0,West,8.1,-,N/A,,Scattered Clouds,260,2013-02-16 03:54:00
11:54 PM,34.0,25.0,70,30.01,10.0,Calm,Calm,-,N/A,,Mostly Cloudy,0,2013-02-16 04:54:00